sat.trackr.live / text

‹ back to catalog

STARLINK-11174 [DTC]

NORAD 60409 · 2024-141M

PAYLOAD ACTIVE UNKNOWN

§ Identity

Operator
Country
US
Launch date
2024-08-10
Launch site
AFETR
Launch vehicle
Mass (kg)
RCS (m²)

Purposes: comms

External: N2YO · Heavens-Above · Gunter

§ Orbital elements

Epoch: 2026-05-25T02:15:25.404192Z

Period
91.74 min
Inclination
53.1591°
Eccentricity
0.0000859
Mean motion
15.69716057 rev/d
Perigee alt
359.1 km
Apogee alt
360.3 km
Semi-major
6,737.8 km
B*
1.3718e-5
RAAN
69.5700°
Arg perigee
69.7336°
Mean anomaly
290.3774°
Rev number
10,369

§ Raw data

STARLINK-11174 [DTC]1 60409U 24141M   26145.09404403  .00001074  00000+0  13718-4 0  99982 60409  53.1591  69.5700 0000859  69.7336 290.3774 15.69716057103696

JSON: /api/v1/satellites/60409 · /tle

For live sub-satellite position, see the globe view (requires WebGL).

§ Visibility from observer

Set your observer location to see the next 7 days of passes ≥ 10°. The values pass through the URL so the page stays shareable.

No JS? Fill the form by hand. The geolocation button needs JavaScript.